Location: Bouchavesnes-Bergen
(49.9859°N, 2.9203°E)
Time: 11:47:25
(UTC+00:00)

Meteor 2-17 Rocket - Pass Details

Date: 09 March 2021
Orbit: 935 x 956 km, 82.5° (Epoch: 13 April)

Event Time Altitude Azimuth Distance (km) Brightness Sun altitude
Rises 03:53:14 0° 349° (N) 3,607 7.6 -23.2°
Reaches altitude 10° 03:55:44 10° 349° (N) 2,658 6.9 -22.8°
Maximum altitude 04:01:48 87° 264° (W) 944 4.3 -21.9°
Drops below altitude 10° 04:07:52 10° 173° (S) 2,644 6.6 -21.0°
Sets 04:10:20 0° 174° (S) 3,586 7.3 -20.6°
